PNY245 EPOK-EPOK

Flight info

Callsign PNY245
Flight time 0h 4m
Altitude 1500
Route EPOKR EPOKH
Aircraft MI2/M-DGV/C

Departure

Time 2026-04-25 17:15
Airport Oksywie Air Base / Gdynia-Kosakowo Airfield (EPOK)

Arrival

Time 2026-04-25 17:19
Airport Oksywie Air Base / Gdynia-Kosakowo Airfield (EPOK)
Time Latitude Longitude Altitude Speed Heading
2026-04-25 16:56 54.58765 18.52597 141 ft 0 kts
2026-04-25 16:59 54.58756 18.52594 151 ft 4 kts 251°
2026-04-25 16:59 54.58728 18.52463 165 ft 29 kts 269°
2026-04-25 16:59 54.58716 18.51870 187 ft 63 kts 268°
2026-04-25 16:59 54.58798 18.51206 324 ft 47 kts 339°
2026-04-25 17:00 54.59047 18.51391 370 ft 45 kts 84°
2026-04-25 17:00 54.59111 18.52028 419 ft 61 kts 85°
2026-04-25 17:00 54.59115 18.52762 431 ft 58 kts 139°
2026-04-25 17:00 54.58801 18.52897 295 ft 53 kts 229°
2026-04-25 17:01 54.58725 18.52397 145 ft 27 kts 270°
2026-04-25 17:01 54.58718 18.52139 183 ft 38 kts 262°
2026-04-25 17:01 54.58720 18.51472 302 ft 63 kts 283°
2026-04-25 17:01 54.59085 18.51314 493 ft 66 kts 40°
2026-04-25 17:02 54.59328 18.51965 517 ft 61 kts 80°
2026-04-25 17:02 54.59312 18.52738 527 ft 68 kts 124°
2026-04-25 17:02 54.58967 18.53097 397 ft 55 kts 194°
2026-04-25 17:02 54.58718 18.52782 246 ft 45 kts 276°
2026-04-25 17:03 54.58729 18.52411 150 ft 10 kts 257°
2026-04-25 17:03 54.58729 18.52389 137 ft 0 kts 255°
2026-04-25 17:03 54.58723 18.52304 163 ft 31 kts 266°
2026-04-25 17:03 54.58711 18.51648 220 ft 68 kts 269°
2026-04-25 17:04 54.58941 18.51155 405 ft 55 kts 11°
2026-04-25 17:04 54.59143 18.51585 403 ft 56 kts 86°
2026-04-25 17:04 54.59224 18.52299 450 ft 62 kts 79°
2026-04-25 17:04 54.59120 18.52940 449 ft 62 kts 158°
2026-04-25 17:05 54.58754 18.52914 277 ft 45 kts 244°
2026-04-25 17:05 54.58727 18.52431 153 ft 10 kts 256°
2026-04-25 17:05 54.58718 18.52007 181 ft 54 kts 271°
2026-04-25 17:06 54.58733 18.51362 260 ft 46 kts 296°
2026-04-25 17:06 54.58969 18.51291 376 ft 39 kts 66°
2026-04-25 17:06 54.59065 18.51864 377 ft 56 kts 80°
2026-04-25 17:06 54.59127 18.52551 416 ft 60 kts 90°
2026-04-25 17:07 54.59066 18.53229 482 ft 54 kts 141°
2026-04-25 17:07 54.58760 18.53068 317 ft 57 kts 266°
2026-04-25 17:07 54.58730 18.52580 166 ft 21 kts 268°
2026-04-25 17:07 54.58728 18.52491 145 ft 6 kts 262°
2026-04-25 17:08 54.58717 18.52088 214 ft 57 kts 271°
2026-04-25 17:08 54.58736 18.51409 327 ft 49 kts 310°
2026-04-25 17:08 54.59053 18.51350 380 ft 56 kts 57°
2026-04-25 17:08 54.59127 18.51975 428 ft 60 kts 92°
2026-04-25 17:09 54.59116 18.52696 430 ft 58 kts 116°
2026-04-25 17:09 54.58823 18.52943 312 ft 53 kts 212°
2026-04-25 17:09 54.58726 18.52498 150 ft 25 kts 265°
2026-04-25 17:09 54.58726 18.52373 153 ft 18 kts 268°
2026-04-25 17:10 54.58717 18.51952 201 ft 50 kts 265°
2026-04-25 17:10 54.58771 18.51342 309 ft 47 kts 320°
2026-04-25 17:10 54.59064 18.51352 308 ft 47 kts 69°
2026-04-25 17:10 54.59115 18.51904 331 ft 55 kts 88°
2026-04-25 17:11 54.59132 18.52629 391 ft 63 kts 97°
2026-04-25 17:11 54.58918 18.53054 310 ft 48 kts 191°
2026-04-25 17:11 54.58732 18.52771 217 ft 30 kts 265°
2026-04-25 17:11 54.58730 18.52565 144 ft 4 kts 256°
2026-04-25 17:12 54.58723 18.52374 188 ft 44 kts 268°
2026-04-25 17:12 54.58710 18.51654 224 ft 70 kts 268°
2026-04-25 17:12 54.58915 18.51131 418 ft 53 kts 356°
2026-04-25 17:12 54.59087 18.51644 378 ft 61 kts 89°
2026-04-25 17:13 54.59122 18.52430 370 ft 68 kts 89°
2026-04-25 17:13 54.59131 18.52704 382 ft 67 kts 91°
2026-04-25 17:13 54.58730 18.52750 229 ft 47 kts 270°
2026-04-25 17:13 54.58728 18.52346 138 ft 13 kts 265°
2026-04-25 17:14 54.58714 18.51957 225 ft 67 kts 263°
2026-04-25 17:14 54.58867 18.51096 451 ft 86 kts 316°
2026-04-25 17:14 54.59464 18.50923 549 ft 94 kts 17°
2026-04-25 17:14 54.59938 18.51721 616 ft 105 kts 62°
2026-04-25 17:15 54.60117 18.52997 608 ft 109 kts 85°
2026-04-25 17:15 54.60214 18.54274 721 ft 103 kts 82°
2026-04-25 17:15 54.60307 18.55426 957 ft 103 kts 79°
2026-04-25 17:15 54.60383 18.56881 819 ft 136 kts 86°
2026-04-25 17:16 54.60441 18.58554 694 ft 144 kts 90°
2026-04-25 17:16 54.60476 18.60260 619 ft 138 kts 92°
2026-04-25 17:16 54.60499 18.61375 551 ft 141 kts 90°
2026-04-25 17:16 54.60523 18.63017 612 ft 133 kts 87°
2026-04-25 17:17 54.60544 18.64655 543 ft 139 kts 91°
2026-04-25 17:17 54.60562 18.66282 598 ft 139 kts 88°
2026-04-25 17:17 54.60574 18.67918 683 ft 134 kts 91°
2026-04-25 17:17 54.60579 18.69476 822 ft 130 kts 88°
2026-04-25 17:18 54.60579 18.71027 929 ft 126 kts 88°
2026-04-25 17:18 54.60592 18.72564 999 ft 132 kts 84°
2026-04-25 17:18 54.60674 18.74200 878 ft 140 kts 85°
2026-04-25 17:18 54.60753 18.75880 726 ft 141 kts 85°
2026-04-25 17:19 54.60837 18.77575 531 ft 143 kts 72°
2026-04-25 17:19 54.61186 18.78888 575 ft 96 kts
2026-04-25 17:19 54.61649 18.78814 475 ft 52 kts 304°
2026-04-25 17:19 54.61729 18.78334 350 ft 40 kts 263°
2026-04-25 17:20 54.61621 18.78047 211 ft 14 kts 219°
2026-04-25 17:20 54.61547 18.77994 35 ft 5 kts 195°
2026-04-25 17:20 54.61538 18.77991 8 ft 0 kts 189°
2026-04-25 17:22 54.61525 18.78045 152 ft 7 kts 105°
2026-04-25 17:22 54.61541 18.78096 348 ft 5 kts 94°
2026-04-25 17:23 54.61572 18.78127 774 ft 8 kts 124°
2026-04-25 17:23 54.61637 18.78418 946 ft 51 kts 56°
2026-04-25 17:23 54.61859 18.79249 725 ft 98 kts 66°
2026-04-25 17:23 54.61993 18.80505 462 ft 112 kts 108°
2026-04-25 17:24 54.61629 18.81561 430 ft 99 kts 167°
2026-04-25 17:24 54.61130 18.81608 553 ft 49 kts 245°
2026-04-25 17:24 54.61207 18.81132 569 ft 50 kts 302°
2026-04-25 17:24 54.61439 18.80665 515 ft 54 kts 290°
2026-04-25 17:25 54.61291 18.80068 452 ft 72 kts 208°
2026-04-25 17:25 54.60772 18.80363 528 ft 91 kts 144°
2026-04-25 17:25 54.60541 18.81463 483 ft 106 kts 88°
2026-04-25 17:25 54.60838 18.82545 433 ft 94 kts 21°
2026-04-25 17:26 54.61294 18.82313 421 ft 73 kts 291°
2026-04-25 17:26 54.61289 18.81403 432 ft 81 kts 251°
2026-04-25 17:26 54.60975 18.80656 465 ft 82 kts 199°
2026-04-25 17:26 54.60430 18.81309 456 ft 116 kts 112°
2026-04-25 17:27 54.60620 18.82494 548 ft 103 kts 25°
2026-04-25 17:27 54.61227 18.82582 564 ft 84 kts 322°
2026-04-25 17:27 54.61471 18.81769 507 ft 81 kts 267°
2026-04-25 17:27 54.61307 18.81172 510 ft 84 kts 236°
2026-04-25 17:28 54.60729 18.80315 489 ft 79 kts 238°
2026-04-25 17:28 54.60578 18.79601 504 ft 63 kts 284°
2026-04-25 17:28 54.60833 18.78835 385 ft 76 kts 299°
2026-04-25 17:28 54.61094 18.78125 391 ft 63 kts 300°
2026-04-25 17:29 54.61374 18.77862 262 ft 38 kts 345°
2026-04-25 17:29 54.61528 18.77990 50 ft 6 kts 282°
2026-04-25 17:29 54.61538 18.77982 31 ft 3 kts 322°
2026-04-25 17:29 54.61544 18.77979 7 ft 0 kts 315°
2026-04-25 17:31 54.61546 18.77972 29 ft 4 kts 287°
2026-04-25 17:31 54.61564 18.77698 93 ft 39 kts 284°
2026-04-25 17:32 54.61647 18.77127 137 ft 59 kts 284°
2026-04-25 17:32 54.61812 18.76366 105 ft 79 kts 289°
2026-04-25 17:32 54.61994 18.75473 228 ft 79 kts 283°
2026-04-25 17:32 54.62162 18.74549 259 ft 83 kts 284°
2026-04-25 17:33 54.62342 18.73586 223 ft 84 kts 287°
2026-04-25 17:33 54.62520 18.72633 215 ft 81 kts 286°
2026-04-25 17:33 54.62696 18.71719 201 ft 78 kts 286°
2026-04-25 17:33 54.62855 18.70845 241 ft 75 kts 283°
2026-04-25 17:34 54.62975 18.69946 397 ft 70 kts 276°
2026-04-25 17:34 54.63006 18.69114 588 ft 77 kts 266°
2026-04-25 17:34 54.62950 18.68194 758 ft 79 kts 265°
2026-04-25 17:34 54.62890 18.67228 850 ft 79 kts 266°
2026-04-25 17:35 54.62811 18.66284 838 ft 89 kts 266°
2026-04-25 17:35 54.62761 18.65188 724 ft 88 kts 274°
2026-04-25 17:35 54.62795 18.64146 693 ft 88 kts 274°
2026-04-25 17:35 54.62855 18.63073 640 ft 90 kts 278°
2026-04-25 17:36 54.62937 18.61983 494 ft 94 kts 281°
2026-04-25 17:36 54.63019 18.60894 377 ft 90 kts 277°
2026-04-25 17:36 54.63043 18.59876 552 ft 74 kts 268°
2026-04-25 17:36 54.63012 18.58933 575 ft 87 kts 268°
2026-04-25 17:37 54.63002 18.57906 568 ft 84 kts 271°
2026-04-25 17:37 54.63009 18.56881 530 ft 84 kts 274°
2026-04-25 17:37 54.63058 18.55877 461 ft 85 kts 279°
2026-04-25 17:37 54.63149 18.54884 428 ft 84 kts 277°
2026-04-25 17:38 54.63270 18.53874 353 ft 88 kts 283°
2026-04-25 17:38 54.63373 18.53220 393 ft 82 kts 280°
2026-04-25 17:38 54.63537 18.51934 380 ft 83 kts 274°
2026-04-25 17:38 54.63272 18.51283 563 ft 81 kts 185°
2026-04-25 17:39 54.62661 18.51192 546 ft 99 kts 193°
2026-04-25 17:39 54.62151 18.50818 461 ft 74 kts 288°
2026-04-25 17:39 54.62537 18.50114 238 ft 68 kts 338°
2026-04-25 17:39 54.62699 18.49678 437 ft 55 kts 268°
2026-04-25 17:40 54.62663 18.48806 204 ft 87 kts 266°
2026-04-25 17:40 54.62833 18.48071 198 ft 80 kts
2026-04-25 17:40 54.62963 18.49040 209 ft 95 kts 149°
2026-04-25 17:40 54.62503 18.49955 232 ft 116 kts 119°
2026-04-25 17:41 54.62626 18.51149 259 ft 94 kts 22°
2026-04-25 17:41 54.63226 18.51525 415 ft 93 kts 356°
2026-04-25 17:41 54.63803 18.51377 528 ft 75 kts 285°
2026-04-25 17:41 54.63421 18.50720 535 ft 107 kts 192°
2026-04-25 17:42 54.63276 18.51686 606 ft 107 kts 30°
2026-04-25 17:42 54.63744 18.51556 576 ft 68 kts 275°
2026-04-25 17:42 54.63536 18.50761 437 ft 81 kts 250°
2026-04-25 17:42 54.63276 18.49894 366 ft 81 kts 254°
2026-04-25 17:43 54.63078 18.48980 290 ft 80 kts 266°
2026-04-25 17:43 54.62914 18.48153 302 ft 84 kts 192°
2026-04-25 17:43 54.62560 18.49010 303 ft 116 kts 85°
2026-04-25 17:43 54.62614 18.50334 371 ft 107 kts 72°
2026-04-25 17:44 54.62849 18.50567 338 ft 52 kts 258°
2026-04-25 17:44 54.62444 18.50348 340 ft 80 kts 182°
2026-04-25 17:44 54.61936 18.50492 473 ft 64 kts 199°
2026-04-25 17:44 54.61586 18.50821 645 ft 72 kts 56°
2026-04-25 17:45 54.61886 18.51065 753 ft 47 kts 316°
2026-04-25 17:45 54.61991 18.50995 517 ft 56 kts 330°
2026-04-25 17:45 54.62164 18.50601 375 ft 57 kts 160°
2026-04-25 17:45 54.61683 18.50979 453 ft 86 kts 174°
2026-04-25 17:46 54.61112 18.51376 470 ft 90 kts 176°
2026-04-25 17:46 54.60587 18.51815 620 ft 80 kts 173°
2026-04-25 17:46 54.60083 18.52283 638 ft 85 kts 172°
2026-04-25 17:46 54.59564 18.52811 600 ft 87 kts 168°
2026-04-25 17:47 54.59140 18.53348 531 ft 67 kts 185°
2026-04-25 17:47 54.58798 18.53293 397 ft 46 kts 246°
2026-04-25 17:47 54.58732 18.52754 281 ft 54 kts 260°
2026-04-25 17:47 54.58713 18.51957 358 ft 75 kts 266°
2026-04-25 17:48 54.59423 18.51632 644 ft 102 kts 72°
2026-04-25 17:48 54.59376 18.52798 655 ft 103 kts 110°
2026-04-25 17:48 54.58986 18.53692 609 ft 82 kts 185°
2026-04-25 17:49 54.58694 18.53295 398 ft 53 kts 261°
2026-04-25 17:49 54.58628 18.52957 323 ft 12 kts 246°
2026-04-25 17:49 54.58579 18.52839 204 ft 9 kts 229°
2026-04-25 17:49 54.58569 18.52812 149 ft 0 kts 242°
2026-04-25 17:51 54.58569 18.52811 149 ft 0 kts 242°